User: anonymous   Login
Location: Gravina in Puglia
(40.8171°N, 16.4185°E)
Time: 19:22:48
(UTC+01:00)
Language:

ISS - Orbit

View from above orbital plane
View from above orbital plane
View from above satellite
View from above satellite

Ground track
Ground track

The orbit data is extracted from the following two-line orbital elements,

1 25544U 98067A   19086.53050777  .00016717  00000-0  10270-3 0  9027
2 25544  51.6400  47.1588 0002017 116.9830 243.1528 15.52440774  2566
Epoch (UTC): 27 March 2019 12:43:55
Eccentricity: 0.0002017
inclination: 51.6400°
perigee height: 408 km
apogee height: 411 km
right ascension of ascending node: 47.1588°
argument of perigee: 116.9830°
revolutions per day: 15.52440774
mean anomaly at epoch: 243.1528°
orbit number at epoch: 256

The dashed part of the orbit path shows where the satellite is in the earth's shadow,  

DLR